sat.trackr.live / text

‹ back to catalog

ONEWEB-0160

NORAD 48060 · 2021-025U

PAYLOAD ACTIVE UNKNOWN

§ Identity

Operator
Country
UK
Launch date
2021-03-25
Launch site
VOSTO
Launch vehicle
Mass (kg)
RCS (m²)

Purposes: comms

External: N2YO · Heavens-Above · Gunter

§ Orbital elements

Epoch: 2026-05-25T01:21:35.362656Z

Period
109.63 min
Inclination
87.8943°
Eccentricity
0.0002165
Mean motion
13.13468906 rev/d
Perigee alt
1,208.1 km
Apogee alt
1,211.4 km
Semi-major
7,587.9 km
B*
-6.5347e-4
RAAN
324.8345°
Arg perigee
72.8105°
Mean anomaly
287.3261°
Rev number
25,052

§ Raw data

ONEWEB-01601 48060U 21025U   26145.05665929 -.00000226  00000+0 -65347-3 0  99972 48060  87.8943 324.8345 0002165  72.8105 287.3261 13.13468906250529

JSON: /api/v1/satellites/48060 · /tle

For live sub-satellite position, see the globe view (requires WebGL).

§ Visibility from observer

Set your observer location to see the next 7 days of passes ≥ 10°. The values pass through the URL so the page stays shareable.

No JS? Fill the form by hand. The geolocation button needs JavaScript.